| time (UTC) | temp C | wind direction | speed KPH | gust KPH | rain 1hr cm | rain 24hr cm | rain mn cm | humidity % | barometer mb |
| 20260505211516 | 10 | 23 | 3.2 | 14.5 | 0.00 | 0.00 | 0.00 | 79 | 1009.7 |
| 20260505210016 | 10 | 23 | 3.2 | 12.9 | 0.00 | 0.00 | 0.00 | 79 | 1009.7 |
| 20260505204556 | 11 | 0 | 1.6 | 12.9 | 0.00 | 0.00 | 0.00 | 78 | 1009.8 |
| 20260505203016 | 11 | 23 | 3.2 | 12.9 | 0.00 | 0.00 | 0.00 | 78 | 1009.7 |
| 20260505201516 | 11 | 23 | 3.2 | 16.1 | 0.00 | 0.00 | 0.00 | 77 | 1009.6 |
| 20260505200016 | 11 | 23 | 3.2 | 14.5 | 0.00 | 0.00 | 0.00 | 76 | 1009.4 |
| 20260505194516 | 11 | 23 | 3.2 | 16.1 | 0.00 | 0.00 | 0.00 | 76 | 1009.4 |
| 20260505193036 | 12 | 23 | 3.2 | 12.9 | 0.00 | 0.00 | 0.00 | 75 | 1009.3 |
| 20260505191536 | 12 | 0 | 3.2 | 14.5 | 0.00 | 0.00 | 0.00 | 75 | 1009.2 |
| 20260505190036 | 12 | 23 | 3.2 | 12.9 | 0.00 | 0.00 | 0.00 | 75 | 1009.1 |
| 20260505184516 | 12 | 23 | 3.2 | 14.5 | 0.00 | 0.00 | 0.00 | 74 | 1009.0 |
| 20260505183016 | 13 | 23 | 1.6 | 11.3 | 0.00 | 0.00 | 0.00 | 74 | 1009.0 |
| 20260505181516 | 13 | 45 | 1.6 | 12.9 | 0.00 | 0.00 | 0.00 | 74 | 1009.0 |
| 20260505180016 | 13 | 23 | 1.6 | 11.3 | 0.00 | 0.00 | 0.00 | 73 | 1008.9 |
| 20260505174616 | 13 | 23 | 3.2 | 14.5 | 0.00 | 0.00 | 0.00 | 73 | 1008.8 |
| 20260505173016 | 13 | 23 | 4.8 | 25.7 | 0.00 | 0.00 | 0.00 | 72 | 1008.7 |
| 20260505171516 | 14 | 23 | 3.2 | 11.3 | 0.00 | 0.00 | 0.00 | 72 | 1008.7 |
| 20260505170016 | 14 | 23 | 3.2 | 12.9 | 0.00 | 0.00 | 0.00 | 70 | 1008.8 |
| 20260505164516 | 14 | 45 | 4.8 | 16.1 | 0.00 | 0.00 | 0.00 | 71 | 1008.9 |
| 20260505163036 | 14 | 23 | 3.2 | 14.5 | 0.00 | 0.00 | 0.00 | 70 | 1008.8 |
| 20260505161516 | 14 | 68 | 3.2 | 12.9 | 0.00 | 0.00 | 0.00 | 71 | 1009.0 |
| 20260505153016 | 14 | 68 | 4.8 | 12.9 | 0.00 | 0.00 | 0.00 | 75 | 1009.2 |
| 20260505151516 | 14 | 23 | 1.6 | 12.9 | 0.00 | 0.00 | 0.00 | 75 | 1009.2 |
| 20260505124518 | 13 | 68 | 3.2 | 14.5 | 0.00 | 0.00 | 0.00 | 81 | 1010.1 |
| 20260505123016 | 12 | 45 | 3.2 | 14.5 | 0.00 | 0.00 | 0.00 | 83 | 1010.2 |
| 20260505121516 | 12 | 45 | 1.6 | 11.3 | 0.00 | 0.00 | 0.00 | 83 | 1010.3 |
| 20260505120038 | 12 | 45 | 3.2 | 12.9 | 0.00 | 0.00 | 0.00 | 83 | 1010.3 |
| 20260505114518 | 12 | 68 | 4.8 | 14.5 | 0.00 | 0.00 | 0.00 | 83 | 1010.4 |
| 20260505113018 | 12 | 45 | 4.8 | 14.5 | 0.00 | 0.00 | 0.00 | 84 | 1010.5 |
| 20260505111518 | 12 | 23 | 4.8 | 16.1 | 0.00 | 0.00 | 0.00 | 84 | 1010.5 |
| 20260505101518 | 12 | 68 | 3.2 | 16.1 | 0.00 | 0.00 | 0.00 | 86 | 1010.8 |
| 20260505100018 | 11 | 45 | 6.4 | 19.3 | 0.00 | 0.00 | 0.00 | 88 | 1010.8 |
| 20260505094538 | 11 | 45 | 3.2 | 14.5 | 0.00 | 0.00 | 0.00 | 89 | 1010.9 |
| 20260505093018 | 11 | 68 | 3.2 | 12.9 | 0.00 | 0.00 | 0.00 | 90 | 1010.9 |
| 20260505091518 | 11 | 45 | 3.2 | 14.5 | 0.00 | 0.00 | 0.00 | 91 | 1010.9 |
| 20260505090018 | 11 | 45 | 4.8 | 19.3 | 0.00 | 0.00 | 0.00 | 91 | 1011.0 |
| 20260505084518 | 11 | 45 | 3.2 | 12.9 | 0.00 | 0.00 | 0.00 | 91 | 1011.0 |
| 20260505083018 | 10 | 45 | 3.2 | 11.3 | 0.00 | 0.00 | 0.00 | 91 | 1011.1 |
| 20260505081518 | 10 | 23 | 3.2 | 14.5 | 0.00 | 0.00 | 0.00 | 91 | 1011.1 |
| 20260505080017 | 10 | 68 | 4.8 | 14.5 | 0.00 | 0.00 | 0.00 | 91 | 1011.0 |
| 20260505074518 | 10 | 45 | 3.2 | 12.9 | 0.00 | 0.00 | 0.00 | 92 | 1011.0 |
| 20260505073017 | 10 | 23 | 3.2 | 14.5 | 0.00 | 0.00 | 0.00 | 92 | 1010.9 |
| 20260505071518 | 10 | 23 | 1.6 | 9.7 | 0.00 | 0.00 | 0.00 | 91 | 1010.8 |
| 20260505070038 | 10 | 23 | 3.2 | 12.9 | 0.00 | 0.00 | 0.00 | 91 | 1010.8 |
| 20260505064518 | 10 | 23 | 1.6 | 11.3 | 0.00 | 0.00 | 0.00 | 91 | 1011.1 |
| 20260505063017 | 10 | 23 | 3.2 | 8.0 | 0.00 | 0.00 | 0.00 | 91 | 1011.2 |
| 20260505061518 | 10 | 23 | 1.6 | 11.3 | 0.00 | 0.00 | 0.00 | 91 | 1011.1 |
| 20260505060038 | 10 | 23 | 1.6 | 11.3 | 0.00 | 0.00 | 0.00 | 91 | 1011.3 |
| 20260505054518 | 10 | 23 | 3.2 | 11.3 | 0.00 | 0.00 | 0.00 | 91 | 1011.2 |
| 20260505053056 | 10 | 23 | 3.2 | 12.9 | 0.00 | 0.00 | 0.00 | 90 | 1011.4 |
| 20260505051518 | 10 | 0.0 | 8.0 | 0.00 | 0.00 | 0.00 | 90 | 1011.5 | |
| 20260505041538 | 10 | 23 | 3.2 | 11.3 | 0.00 | 0.00 | 0.00 | 89 | 1011.2 |
| 20260505040018 | 11 | 45 | 3.2 | 16.1 | 0.00 | 0.00 | 0.00 | 89 | 1011.3 |
| 20260505034518 | 11 | 23 | 1.6 | 12.9 | 0.00 | 0.00 | 0.00 | 89 | 1011.3 |
| 20260505033017 | 11 | 23 | 3.2 | 16.1 | 0.00 | 0.00 | 0.00 | 89 | 1011.3 |
| 20260505031518 | 11 | 23 | 3.2 | 16.1 | 0.00 | 0.00 | 0.00 | 89 | 1011.3 |
| 20260505030017 | 11 | 45 | 1.6 | 11.3 | 0.00 | 0.00 | 0.00 | 89 | 1011.5 |
| 20260505024518 | 11 | 23 | 3.2 | 16.1 | 0.00 | 0.00 | 0.00 | 88 | 1011.6 |
| 20260505023018 | 11 | 23 | 3.2 | 12.9 | 0.00 | 0.00 | 0.00 | 88 | 1011.5 |
| 20260505021518 | 11 | 23 | 1.6 | 12.9 | 0.00 | 0.00 | 0.00 | 88 | 1011.6 |
| 20260505020058 | 11 | 23 | 3.2 | 14.5 | 0.00 | 0.00 | 0.00 | 88 | 1011.5 |
| 20260505014517 | 12 | 23 | 3.2 | 14.5 | 0.00 | 0.00 | 0.00 | 88 | 1011.5 |
| 20260505013017 | 12 | 23 | 1.6 | 11.3 | 0.00 | 0.00 | 0.00 | 88 | 1011.5 |
| 20260505011517 | 12 | 23 | 3.2 | 14.5 | 0.00 | 0.00 | 0.00 | 88 | 1011.6 |
| 20260505010018 | 12 | 23 | 3.2 | 12.9 | 0.00 | 0.00 | 0.00 | 88 | 1011.7 |
| 20260505004543 | 12 | 23 | 1.6 | 16.1 | 0.00 | 0.00 | 0.00 | 88 | 1011.8 |
| 20260505003018 | 12 | 23 | 1.6 | 9.7 | 0.00 | 0.00 | 0.00 | 88 | 1011.8 |
| 20260505001517 | 12 | 23 | 1.6 | 12.9 | 0.00 | 0.00 | 0.00 | 88 | 1011.9 |
| 20260505000017 | 12 | 0.0 | 8.0 | 0.00 | 0.00 | 0.00 | 88 | 1012.0 | |
| 20260504234518 | 12 | 23 | 1.6 | 9.7 | 0.00 | 0.00 | 0.00 | 88 | 1012.1 |
| 20260504233017 | 12 | 23 | 1.6 | 14.5 | 0.00 | 0.00 | 0.00 | 88 | 1012.2 |
| 20260504231518 | 13 | 23 | 3.2 | 11.3 | 0.00 | 0.00 | 0.00 | 88 | 1012.2 |
| 20260504230017 | 13 | 23 | 3.2 | 14.5 | 0.00 | 0.00 | 0.00 | 88 | 1012.2 |
| 20260504224537 | 13 | 23 | 1.6 | 12.9 | 0.00 | 0.00 | 0.00 | 88 | 1012.4 |
| 20260504223017 | 13 | 23 | 1.6 | 11.3 | 0.00 | 0.00 | 0.00 | 88 | 1012.4 |
| 20260504221538 | 13 | 23 | 1.6 | 8.0 | 0.00 | 0.00 | 0.00 | 89 | 1012.4 |
| 20260504220018 | 13 | 23 | 1.6 | 11.3 | 0.00 | 0.00 | 0.00 | 89 | 1012.4 |
| 20260504214516 | 13 | 23 | 1.6 | 9.7 | 0.00 | 0.00 | 0.00 | 89 | 1012.4 |
| 20260504213016 | 13 | 23 | 1.6 | 11.3 | 0.00 | 0.00 | 0.00 | 89 | 1012.4 |